Dr. Bill's Marine Weather

Coastal Marine Forecast

       Alabama   Florida   Louisiana   Mississippi

Printer Friendly AL  FL  LA  MS

Data Buoys:   Western Gulf of Mexico    Eastern Gulf of Mexico
**********************************************************************
  Alabama
400 AM CDT SUN SEP 21 2014

ALZ051>064-211000-
SOUTHWEST ALABAMA
  
CITY           SKY/WX    TMP DP  RH WIND       PRES   REMARKS
MOBILE         CLEAR     68  66  93 E3        30.00S                  
BROOKLEY FIELD CLEAR     70  68  93 NW6       30.01R                  
EVERGREEN      PTCLDY    66  63  90 CALM      30.01S                  
**********************************************************************
  Florida
500 AM EDT SUN SEP 21 2014

FLZ001>010-012>015-112-114-115-211000-
PANHANDLE FLORIDA
  
CITY           SKY/WX    TMP DP  RH WIND       PRES   REMARKS
PENSACOLA      CLOUDY    71  67  87 N6        29.98S                  
PENSACOLA NAS  MOCLDY    72  68  87 N8        29.97S                  
MILTON NAS     CLOUDY    69  65  86 N5        29.99S                  
CRESTVIEW      PTCLDY    67  65  93 NE3       30.01R                  
DUKE FIELD     FAIR      66  66 100 NE3       29.99S                  
VALPARAISO     CLEAR     69  66  91 NE6       29.98S                  
MARY ESTHER    CLEAR     69  64  84 NE5       29.97S                  
TRI COUNTY     FAIR      66  65  96 MISG      30.00S                  
PANAMA CITY    FAIR      69  66  90 NE3       29.97R                  
TYNDALL AFB    CLEAR     71  70  98 NE6       29.97R                  
APALACHICOLA   CLEAR     73  69  87 NE5       29.95S                  

STATION/POSITION SKY/WX   TEMP    WIND        PRES    WAVE   SWELL
                          AIR SEA DIR/SP/G            HT/PER HT/PER
                          (F)     (DEG/KT/KT) (MB)    (FT/S) (FT/S)
30.1N   87.6W              79 85   50/ 16/ 19 1014.3R   3/ 6
29.2N   88.2W              81 84   90/ 12/ 16 1013.9R   4/ 6   2/ 6
28.8N   86.0W              81 84   90/ 16/ 17 1012.7F   3/ 5
PANAMA CITY BEAC           74 85   70/  4/  8 1014.7F
CAPE SAN BLAS    NOT AVBL
TOWER C                    78      80/ 14/ 15 1013.9S
28.5N   84.5W              79 84   80/ 16/ 17 1013.4R   3/ 4

**********************************************************************
  Louisiana
500 AM CDT SUN SEP 21 2014

LAZ040-048-061>063-065-066-069-211100-
SOUTHEAST LOUISIANA
  
CITY           SKY/WX    TMP DP  RH WIND       PRES   REMARKS
N.O. AUDUBON     N/A     76  70  83 MISG        N/A                   
N.O. INTL ARPT CLEAR     76  69  79 E5        29.97R                  
N.O. LAKEFRONT CLEAR     76  70  82 E14       29.98R                  
N.O. DOWNTOWN* FAIR      75  66  73 NE7       29.98R                  
SLIDELL        CLEAR     67  64  90 CALM      29.98R                  
BATON ROUGE    CLEAR     70  68  93 CALM      30.00R FOG              
BOOTHVILLE     CLEAR     80  72  76 E6        29.96R                  
BELLE CHASSE   CLEAR     72  68  87 CALM      29.97R                  
BOGALUSA*        N/A     66  63  89 CALM      30.01S                  
GALLIANO*      NOT AVBL                                               
NEW ROADS*     FAIR      68  68  99 CALM      30.00R FOG              
GONZALES*      FAIR      71  70  99 CALM      29.99R                  
HAMMOND*       NOT AVBL                                               
HOUMA*         CLEAR     71  66  85 CALM      29.97S                  
PORT FOURCHON* SUNNY     79  73  83 NE7       29.99R                  

**********************************************************************
  Mississippi
500 AM CDT SUN SEP 21 2014

MSZ080>082-211100-
COASTAL MISSISSIPPI
  
CITY           SKY/WX    TMP DP  RH WIND       PRES   REMARKS
BILOXI         CLEAR     71  66  83 E7        29.97F                  
PASCAGOULA     CLEAR     69  66  90 NE3       29.98F                  
GULFPORT       CLEAR     70  66  87 CALM      29.97S                  
About Us | Coastal Marine Forecast | Offshore Marine Forecast | Marine Weather Discussion
Gulf Coast Tides | Exxon Mobil Platform 112B | Hourly Weather Observations | Weather Radar
Severe Weather Potential | Sea Surface Temperatures | Solar/Lunar Data | Hurricane Advisories | Home
     
USA Logo Dr. Bill's Marine Weather
Last date changed: February 4, 2005 12:04 PM
www.gulfmarineweather.com/hourlyweatherobservations.shtml
Contact Us